Regional Weather Roundup
Issued by NWS Little Rock, AR

Home | Current Version | Previous Version | Text Only | Print | Product List | Glossary On
Versions: 1 2 3 4 5 6 7 8 9 10 11 12 13 14 15 16 17 18 19 20 21 22 23 24 25 26 27 28 29 30 31 32 33 34 35 36 37 38 39 40 41 42 43 44 45 46 47 48 49 50
000
ASUS44 KLZK 301805
RWRLZK

WEATHER ROUNDUP FOR ARKANSAS
NATIONAL WEATHER SERVICE LITTLE ROCK AR
100 PM CDT SAT AUG 30 2014

NOTE: "FAIR" INDICATES FEW OR NO CLOUDS BELOW 12,000 FEET WITH NO
SIGNIFICANT WEATHER AND/OR OBSTRUCTIONS TO VISIBILITY.

ARZ001-003-010-029-301900-
NORTHWEST ARKANSAS

CITY           SKY/WX    TMP DP  RH WIND       PRES   REMARKS
FAYETTEVILLE   PTSUNNY   78  72  81 S8        30.01F
6HR MIN TEMP:  70; 6HR MAX TEMP:  78; 6HR PCP:  0.16;

FORT SMITH     PTSUNNY   88  71  57 NE6       29.97F HX  94
6HR MIN TEMP:  73; 6HR MAX TEMP:  89;

HARRISON       MOSUNNY   83  68  60 SW8       30.00F HX  86
6HR MIN TEMP:  71; 6HR MAX TEMP:  84;

BENTONVILLE    PTSUNNY   82  70  65 S6        30.00F HX  86
6HR MIN TEMP:  72; 6HR MAX TEMP:  84;

ROGERS         MOSUNNY   84  69  60 S12G18    30.00F HX  88
6HR MIN TEMP:  71; 6HR MAX TEMP:  84;

HIGHFILL       MOSUNNY   85  70  60 S9        29.99F HX  89
6HR MIN TEMP:  71; 6HR MAX TEMP:  85;

SPRINGDALE     PTSUNNY   79  72  78 S17       30.03F
$$

ARZ004-005-016-301900-
NORTH CENTRAL ARKANSAS

CITY           SKY/WX    TMP DP  RH WIND       PRES   REMARKS
BATESVILLE     CLOUDY    81  72  74 S6        30.01F
6HR MIN TEMP:  73; 6HR MAX TEMP:  81;

FLIPPIN        PTSUNNY   82  68  61 S7        30.00F HX  85
6HR MIN TEMP:  72; 6HR MAX TEMP:  82;

MTN HOME       PTSUNNY   80  72  76 S7        30.00F
6HR MIN TEMP:  71; 6HR MAX TEMP:  80; 6HR PCP:  0.06;

$$

ARZ040-041-301900-
WEST CENTRAL ARKANSAS

CITY           SKY/WX    TMP DP  RH WIND       PRES   REMARKS
MENA           CLOUDY    84  72  65 CALM      30.01F HX  89
MOUNT IDA      PTSUNNY   83  69  62 CALM      29.98F HX  86
6HR MIN TEMP:  73; 6HR MAX TEMP:  85;

$$

ARZ009-017-025-026-028-301900-
NORTHEAST ARKANSAS

CITY           SKY/WX    TMP DP  RH WIND       PRES   REMARKS
CORNING          N/A     82  75  78 SW10      30.01F HX  89
JONESBORO      LGT RAIN  79  71  76 S9        30.03F
6HR MIN TEMP:  74; 6HR MAX TEMP:  80;

NEWPORT        CLOUDY    82  73  74 S10       30.03F HX  87
6HR MIN TEMP:  74; 6HR MAX TEMP:  82;

WALNUT RIDGE   CLOUDY    82  72  69 S10       30.01F HX  87
6HR MIN TEMP:  73; 6HR MAX TEMP:  82;

BLYTHEVILLE    LGT RAIN  76  74  93 W6        30.05S
6HR MIN TEMP:  75; 6HR MAX TEMP:  81; 6HR PCP:  0.06;

$$

ARZ022-023-033-042-044-301900-
CENTRAL ARKANSAS

CITY           SKY/WX    TMP DP  RH WIND       PRES   REMARKS
LITTLE ROCK    PTSUNNY   84  70  62 SE6       30.00F HX  88
6HR MIN TEMP:  76; 6HR MAX TEMP:  85;

N LITTLE ROCK  PTSUNNY   83  72  67 S8        30.00F HX  88
6HR MIN TEMP:  75; 6HR MAX TEMP:  84;

JACKSONVILLE   PTSUNNY   84  71  63 S8        30.01F HX  89
6HR MIN TEMP:  75; 6HR MAX TEMP:  85;

SEARCY         CLOUDY    83  73  71 MISG      30.02F HX  89
6HR MIN TEMP:  74; 6HR MAX TEMP:  83;

HOT SPRINGS      N/A     83  71  67 VRB3      30.00F HX  87
6HR MIN TEMP:  76; 6HR MAX TEMP:  84;

RUSSELLVILLE   PTSUNNY   86  71  60 VRB5      29.99F HX  91
6HR MIN TEMP:  75; 6HR MAX TEMP:  86;

CLINTON        PTSUNNY   84  73  70 SE6       30.00F HX  91
$$

ARZ036-301900-
EAST ARKANSAS

CITY           SKY/WX    TMP DP  RH WIND       PRES   REMARKS
WEST MEMPHIS   LGT RAIN  72  72 100 CALM      30.04F FOG
6HR MIN TEMP:  72; 6HR MAX TEMP:  78; 6HR PCP:  0.45;

$$

ARZ050-053-066-070-073-301900-
SOUTHWEST ARKANSAS

CITY           SKY/WX    TMP DP  RH WIND       PRES   REMARKS
ARKADELPHIA    FAIR      87  73  62 CALM      29.99F HX  94
6HR MIN TEMP:  75; 6HR MAX TEMP:  88;

CAMDEN         CLOUDY    81  72  74 SE13G20   30.01S
TEXARKANA      MOSUNNY   86  71  60 VRB5      29.97F HX  91
6HR MIN TEMP:  74; 6HR MAX TEMP:  86;

EL DORADO      LGT RAIN  74  72  93 E8        30.01F
6HR MIN TEMP:  73; 6HR MAX TEMP:  78; 6HR PCP:  0.10;

DE QUEEN       PTSUNNY   84  72  67 VRB5      29.96F HX  89
6HR MIN TEMP:  70; 6HR MAX TEMP:  85;

$$

ARZ056-057-069-301900-
SOUTHEAST ARKANSAS

CITY           SKY/WX    TMP DP  RH WIND       PRES   REMARKS
PINE BLUFF     LGT RAIN  78  73  84 S9        30.03S
6HR MIN TEMP:  74; 6HR MAX TEMP:  79; 6HR PCP:  0.02;

STUTTGART      CLOUDY    81  72  74 SE9       30.03S
6HR MIN TEMP:  75; 6HR MAX TEMP:  81; 6HR PCP:  0.02;

MONTICELLO     LGT RAIN  77  74  90 E5        30.03F FOG
6HR MIN TEMP:  75; 6HR MAX TEMP:  78; 6HR PCP:  0.12;


$$




USA.gov is the U.S. government's official web portal to all federal, state and local government web resources and services.